Regional Weather Roundup
Issued by NWS Newport/Morehead, NC

Current Version | Previous Version | Text Only | Print | Product List | Glossary On
Versions: 1 2 3 4 5 6 7 8 9 10 11 12 13 14 15 16 17 18 19 20 21 22 23 24 25 26 27 28 29 30 31 32 33 34 35 36 37 38 39 40 41 42 43 44 45 46 47 48 49 50
000
ASUS42 KMHX 300010
RWRMHX
WEATHER ROUNDUP FOR EASTERN NORTH CAROLINA
NATIONAL WEATHER SERVICE NEWPORT/MOREHEAD CITY NC
800 PM EDT MON SEP 29 2014

NOTE: "FAIR" INDICATES FEW OR NO CLOUDS BELOW 12,000 FEET
WITH NO SIGNIFICANT WEATHER AND/OR OBSTRUCTIONS TO VISIBILITY

NCZ015>017-031-032-045>047-102-103-300100-
NORTH COAST

CITY           SKY/WX    TMP DP  RH WIND       PRES   REMARKS
EDENTON        CLOUDY    68  65  89 CALM      29.96F
ELIZABETH CITY CLOUDY    70  64  81 CALM      29.96S
KITTY HAWK     CLOUDY    70  65  85 CALM      29.94S
MANTEO         CLOUDY    69  64  83 NE6       29.95F

$$

NCZ045>047-081-094-103-104-300100-
CENTRAL COAST

CITY           SKY/WX    TMP DP  RH WIND       PRES   REMARKS
FRISCO         CLOUDY    69  64  84 N7        29.94S
SWANQUARTER      N/A     70 N/A N/A VRB2      29.91S

$$

NCZ095-097-098-100-101-300100-
SOUTHERN COAST

CITY           SKY/WX    TMP DP  RH WIND       PRES   REMARKS
BEAUFORT       LGT RAIN  71  68  90 NW7       29.95S
CEDAR ISLAND     N/A     73 N/A N/A N13       29.97F
JACKSONVILLE   LGT RAIN  69  66  90 N3        29.96S
NEWPORT        NOT AVBL
PINEY ISLAND   LGT RAIN  74  65  73 N6        29.94F
WILMINGTON     LGT RAIN  68  66  93 NE5       29.95F


$$

NCZ011>013-027>030-043-044-078>080-089-090>093-098-300100-
COASTAL PLAIN

CITY           SKY/WX    TMP DP  RH WIND       PRES   REMARKS
AHOSKIE        RAIN      63  62  96 CALM      29.98R
CLINTON        RAIN      65  65 100 CALM      29.97R
ELIZABETHTOWN  LGT RAIN  66  66  99 CALM      29.96S
GOLDSBORO      CLOUDY    65  65  98 CALM      29.95S
GREENVILLE     LGT RAIN  66  64  94 CALM      29.98F
HAVELOCK       LGT RAIN  71  67  87 NW6       29.97R
KENANSVILLE    LGT RAIN  66  65  96 CALM      29.97F
KINSTON        NOT AVBL
NEW BERN       LGT RAIN  71  66  84 CALM      29.97S
RICHLANDS      CLOUDY    66  64  94 CALM      29.97S
ROANOKE RAPIDS NOT AVBL
ROCKY MOUNT    LGT RAIN  66  64  93 CALM      29.97S
WASHINGTON     CLOUDY    67  65  92 CALM      29.96F
WHITEVILLE     CLOUDY    67  66  94 CALM      29.95S FOG

$$

AMZ130-135-150-152-154-156-158-170-250-252-270-ANZ085-086-088-633-658-670-300100-
MARINE OBSERVATIONS

STATION/POSITION TIME  TEMP    WIND        PRES    WAVE   SWELL
                       AIR SEA DIR/SP/G            HT/PER HT/PER
                 (UTC) (F)     (DEG/KT/KT) (MB)    (FT/S) (FT/S)
CHESAPEAKE LIGHT 2300   71     330/  4/  5 1014.9
BUOY 44014       0000   71 73  360/  4/  6 1013.7    2/ 8   2/ 8
DUCK             0000   71 73   20/  9/ 10 1013.4
2E DUCK          0000                        N/A     2/ 7
OREGON INLET     0000   70 74  360/  5/  9 1014.0
BUOY 44095       0000      73                N/A     3/ 7
20E OREGON INLET NOT AVBL
HATTERAS CG      0000   72 76   10/ 12/ 14 1014.3
DIAMOND BUOY     0000   73     340/ 16/ 17 1013.3    3/ 8   2/ 8
CAPE LOOKOUT     2300   73     350/  9/ 11 1013.8
BEAUFORT LAB     0000   72 75  340/  5/  6 1013.6
30 SE NEW RIVER  0000   75 80  350/ 12/ 14 1013.3    3/ 8   2/ 8
5 SE WRIGHTSVILL 2300   67 76  340/ 12/ 14   N/A
BUOY 41002       NOT AVBL
BUOY 41004       0000   75 81   60/ 12/ 14 1011.8    3/ 5   2/ 6

$$



USA.gov is the U.S. government's official web portal to all federal, state and local government web resources and services.